Location: Altleiningen
(49.5078°N, 8.0741°E)
Time: 05:44:20
(UTC+00:00)

Cosmos 2297 Rocket - Pass Details

Date: 14 June 2025
Orbit: 838 x 843 km, 71.0° (Epoch: 12 July)

Event Time Altitude Azimuth Distance (km) Brightness Sun altitude
Rises 21:07:26 0° 226° (SW) 3,389 5.2 -10.7°
Reaches altitude 10° 21:09:57 10° 232° (SW) 2,458 4.6 -11.0°
Maximum altitude 21:15:24 48° 306° (NW) 1,095 3.3 -11.4°
Drops below altitude 10° 21:20:53 10° 21° (NNE) 2,473 5.2 -11.9°
Sets 21:23:26 0° 27° (NNE) 3,412 5.9 -12.1°
